Theta_e
320 322 327 327 319 321 323 325 327 329 328 323 324 326 339 342 345 348 347 347 334 332 340 346 346 345 346 346 341 338 339 338 338 339 336 333 336 338 339 338 336 333 331 329 324 321 318 316 314
320 323 327 322 320 321 323 325 326 322 323 322 324 324 333 336 337 339 347 346 331 327 337 344 345 344 345 346 343 340 340 340 340 340 337 332 332 335 335 334 331 327 325 322 321 318 316 314 313
319 321 323 322 321 322 324 325 326 323 323 322 323 324 332 335 335 337 346 348 336 328 334 341 344 343 342 343 345 342 341 341 341 341 338 331 330 330 330 329 326 324 321 319 318 316 314 314 316
318 321 324 323 323 324 325 324 325 325 324 323 323 327 331 333 334 338 342 349 346 331 333 337 340 341 338 341 344 345 342 342 342 342 339 332 329 329 329 326 324 321 319 317 316 315 315 317 318
320 320 324 326 324 323 325 325 323 323 323 324 324 324 332 330 331 341 342 346 349 339 331 336 338 339 337 341 344 346 344 344 343 344 342 336 331 330 329 326 322 320 317 316 315 315 316 318 319
318 320 324 326 326 326 327 325 327 324 322 322 325 325 330 329 329 336 341 343 348 348 334 331 336 338 339 339 342 346 345 346 345 345 343 337 332 330 329 326 322 319 317 316 316 316 317 317 319
318 319 323 325 327 327 327 325 330 326 327 323 324 327 329 326 328 328 342 340 344 348 343 332 335 338 340 338 341 345 346 347 348 347 345 339 334 329 329 326 323 319 317 316 316 316 317 317 317
317 318 322 324 325 325 326 325 323 322 326 325 326 327 329 327 327 328 340 341 347 349 346 337 329 337 340 341 341 343 346 347 348 348 347 342 337 332 328 327 324 321 318 317 317 317 317 317 317
317 317 320 322 325 324 324 324 324 323 323 325 326 327 328 328 327 327 327 339 349 352 348 345 331 334 338 344 342 344 345 347 348 349 348 345 339 334 330 328 325 323 321 318 318 318 318 317 317
315 317 319 320 322 321 321 322 322 325 324 325 326 328 328 327 326 325 324 326 344 355 352 346 338 332 338 345 346 344 345 347 347 347 347 344 338 332 328 327 326 325 326 324 320 319 318 317 317
315 316 318 319 320 321 321 321 321 322 324 324 325 326 328 325 325 324 324 325 330 353 352 348 341 332 336 348 343 343 343 344 347 346 346 341 335 329 331 338 337 337 335 333 329 323 320 319 321
314 316 317 318 319 320 320 320 321 320 326 325 325 325 326 324 323 323 323 326 332 338 349 348 346 336 336 345 346 342 340 341 344 346 342 336 332 330 337 340 340 340 340 341 338 329 328 331 336
313 315 316 317 318 319 320 320 320 320 320 323 326 325 325 324 324 323 323 324 328 333 339 348 347 345 340 343 344 343 340 336 335 337 338 335 334 332 335 342 341 342 341 344 341 339 338 336 337
312 312 313 314 315 316 318 318 318 320 319 320 323 326 324 323 323 323 322 323 333 331 334 341 349 345 343 344 346 345 344 341 337 336 335 338 339 339 339 340 345 343 345 345 343 341 340 340 338
313 312 313 313 314 314 315 315 316 317 318 318 318 323 325 323 324 323 323 323 329 330 331 339 353 346 343 346 350 350 349 343 342 341 340 338 338 343 340 344 342 344 345 345 345 344 342 342 342
312 312 312 313 314 314 314 314 316 316 317 317 318 318 319 322 322 323 324 324 327 329 329 334 346 350 346 343 344 345 349 345 343 342 344 343 342 342 345 345 345 346 344 340 341 340 340 337 337
312 311 311 313 315 315 314 314 315 316 316 316 317 317 317 317 320 322 323 325 327 328 328 328 334 343 342 344 345 346 346 346 346 347 347 346 345 345 344 345 348 347 345 341 342 341 340 338 337
312 312 313 313 314 314 314 314 315 316 316 316 315 315 317 319 320 325 325 326 328 328 327 326 328 337 345 341 340 341 345 346 345 345 345 345 350 348 346 345 346 348 345 344 344 342 340 339 337
314 314 315 315 316 315 315 316 315 315 316 314 314 316 317 318 320 320 326 326 326 326 326 327 328 329 341 348 341 342 343 346 345 343 343 341 343 349 346 345 345 347 347 344 343 341 340 338 336
314 313 312 314 316 315 314 315 315 317 317 316 315 315 317 319 319 319 325 325 326 328 327 327 330 331 328 350 346 342 340 340 340 337 335 337 338 340 349 348 345 343 347 346 343 340 339 337 336
314 313 313 314 315 314 313 314 314 316 316 316 315 315 316 316 317 318 322 322 323 324 325 324 323 326 330 336 349 347 345 346 347 344 343 342 338 337 340 346 348 345 341 342 339 337 336 338 335
314 314 314 314 314 314 314 314 313 316 315 315 315 315 314 317 317 316 320 321 324 324 322 322 323 323 325 331 334 343 344 343 346 347 345 345 344 342 340 339 341 340 340 342 339 338 336 339 339
315 314 314 314 313 313 314 314 314 315 315 314 315 316 315 314 314 316 317 321 320 321 323 324 324 324 322 323 328 333 335 335 336 336 338 338 342 337 335 340 340 341 339 341 342 340 343 342 341
319 318 312 313 312 312 313 314 315 315 315 315 316 316 316 314 315 315 317 319 319 319 319 320 324 323 326 327 325 326 330 333 330 330 332 336 338 334 331 338 345 342 339 342 341 341 343 343 342
319 320 322 313 312 314 313 315 315 316 318 318 317 317 314 316 315 316 316 315 318 318 318 318 319 320 324 325 326 329 327 328 329 328 326 327 325 330 341 342 346 343 335 342 342 342 340 343 344
320 321 323 324 317 317 318 317 316 318 319 318 317 315 315 312 314 314 316 315 317 318 318 318 320 321 324 324 325 326 327 328 330 329 327 326 323 325 325 328 336 336 331 343 344 344 343 342 342
320 323 320 323 321 323 319 318 318 318 319 319 317 316 314 311 312 314 314 315 317 318 319 320 322 322 324 324 324 325 326 327 327 327 327 327 331 330 333 333 335 338 338 339 343 343 342 342 345
318 317 320 322 325 325 320 319 317 319 319 317 317 315 314 315 313 312 313 314 317 319 319 319 319 320 320 320 322 324 326 325 327 328 328 328 329 330 329 325 324 326 329 337 350 353 352 351 353
314 319 320 320 322 325 324 317 318 318 317 318 317 316 314 314 313 312 312 314 316 317 318 319 319 320 320 320 320 320 321 321 324 329 330 330 332 334 334 333 333 334 334 331 336 354 355 355 356
316 317 318 320 323 322 322 319 317 318 317 316 316 316 315 314 312 311 311 314 316 317 317 319 320 319 319 320 322 320 320 320 321 321 321 321 323 327 332 333 335 336 338 337 340 341 352 354 355
Wind_Speed
19 21 16 6 2 3 5 9 9 15 6 4 6 10 22 14 8 7 12 25 31 35 32 29 29 29 27 25 22 22 22 21 20 20 19 19 19 18 16 15 13 12 11 9 9 8 7 7 6
18 22 6 2 2 1 7 11 3 5 5 7 8 6 14 11 10 6 13 23 30 34 33 31 29 28 27 25 23 23 22 21 20 19 19 19 18 16 15 14 12 11 9 8 7 6 6 5 6
19 16 2 2 3 6 6 5 7 6 9 9 8 6 8 6 9 6 14 19 27 32 33 32 31 29 28 27 24 23 22 21 20 19 18 17 17 15 14 13 11 9 8 7 5 5 4 4 5
8 6 3 1 9 13 13 8 11 6 5 7 6 7 5 12 6 10 12 21 22 31 33 32 31 30 29 27 26 24 23 22 20 19 18 17 16 15 13 12 10 8 7 6 5 4 2 2 2
6 2 3 3 8 11 15 7 8 7 7 5 6 7 6 11 15 19 12 18 25 29 32 33 31 30 29 27 26 24 22 20 19 18 17 16 15 14 12 11 10 8 6 5 4 2 1 1 1
3 2 3 4 9 12 12 13 3 6 8 9 10 9 4 15 14 9 9 10 21 31 32 33 31 30 29 28 27 25 23 21 19 17 16 15 14 13 12 10 9 8 7 5 4 3 3 3 4
5 3 6 8 13 17 17 8 18 13 13 10 4 5 3 10 13 14 10 7 7 33 33 34 32 29 28 28 27 26 24 22 19 17 16 15 14 13 11 10 9 8 6 5 4 4 5 7 7
2 3 9 10 12 15 17 7 11 12 12 9 2 4 2 1 11 16 8 6 14 36 34 33 33 31 27 27 27 26 25 23 20 18 16 15 14 14 12 11 10 9 7 7 7 7 8 9 11
5 5 10 14 16 16 18 12 7 4 5 1 3 8 11 8 9 17 23 5 27 27 34 32 34 32 27 24 26 26 26 24 22 19 17 16 15 14 13 12 11 10 9 9 9 10 11 13 15
7 9 16 9 13 13 18 18 14 2 6 4 3 7 4 14 15 15 16 17 16 24 28 31 32 34 28 21 23 26 25 25 23 22 20 17 16 14 13 12 13 12 12 11 12 14 16 17 19
11 17 13 16 14 20 22 22 15 7 6 6 10 9 5 10 8 10 11 13 11 26 20 25 32 35 32 21 21 25 25 25 23 22 21 20 18 15 13 9 12 13 12 15 16 18 21 22 20
13 19 19 19 20 20 17 15 18 11 8 13 12 9 5 8 7 7 4 10 5 25 14 25 26 34 34 27 23 24 25 25 24 23 21 21 21 19 16 16 16 16 15 14 15 19 20 19 17
9 10 16 17 21 21 18 18 17 19 12 2 11 10 8 5 8 8 2 4 3 3 19 20 26 30 32 32 27 25 26 26 26 25 24 22 21 21 20 19 21 18 17 17 15 18 18 18 20
7 11 12 11 12 11 11 12 8 21 8 9 6 14 16 9 9 10 9 4 8 8 10 12 27 30 31 27 27 26 27 28 27 25 26 25 22 22 22 21 21 22 18 19 21 20 20 22 23
10 11 12 12 7 7 8 9 14 13 12 9 14 6 10 10 16 15 22 15 12 8 7 14 24 32 32 32 26 19 17 27 29 26 23 26 27 24 25 24 25 25 22 21 22 22 23 26 23
8 8 6 7 9 12 4 16 16 10 12 12 15 8 7 11 10 19 25 23 20 17 10 9 24 27 32 32 30 27 18 24 32 29 27 26 26 26 26 26 26 26 25 26 24 21 22 21 20
5 8 11 16 14 16 10 20 19 15 13 10 12 11 9 6 10 18 25 29 26 21 15 9 11 20 29 28 26 24 25 22 25 23 24 29 29 28 28 29 26 24 24 24 24 23 26 27 24
8 9 9 13 17 13 19 22 20 14 16 16 10 9 9 5 2 7 23 25 23 18 11 5 6 12 21 25 22 20 21 27 27 25 22 13 26 28 31 28 29 26 27 24 23 20 21 23 22
15 14 16 17 13 7 10 10 10 11 6 7 7 9 9 8 6 4 25 26 23 18 12 7 4 7 11 22 24 20 21 26 27 30 27 22 16 24 28 32 31 27 29 28 25 26 25 27 25
13 13 16 14 11 13 15 16 12 7 4 4 6 7 9 6 6 8 22 24 22 19 15 11 6 4 8 16 24 23 23 20 24 27 27 32 26 16 26 31 31 31 32 28 28 27 25 29 26
11 8 10 12 10 15 15 14 11 7 4 5 10 8 9 12 11 10 16 25 24 20 14 10 8 8 8 9 16 18 17 20 20 27 25 29 25 26 19 28 33 33 33 38 37 34 28 24 22
16 7 12 16 13 6 6 12 9 7 8 10 16 19 10 10 9 9 14 14 24 20 15 10 9 9 12 11 14 18 23 21 21 13 16 21 19 15 13 34 33 36 36 38 40 37 30 28 18
15 10 11 15 7 4 8 6 8 7 12 12 12 20 18 11 10 10 14 20 19 17 15 14 12 7 9 15 17 17 17 17 15 14 18 25 19 15 23 25 33 41 37 38 40 27 29 30 24
18 21 8 6 2 4 13 8 14 10 8 8 17 11 16 11 11 12 18 24 23 18 13 11 10 8 10 12 14 18 16 14 15 11 8 10 17 30 35 34 30 30 37 46 41 33 28 29 30
12 9 6 7 4 10 16 11 11 11 15 13 23 24 10 15 12 11 11 10 19 19 17 15 17 14 13 13 13 14 13 11 10 10 14 17 16 11 16 28 31 24 34 43 46 35 40 32 31
1 6 4 7 3 6 14 15 16 7 10 10 13 7 13 11 10 11 14 12 18 21 20 24 22 17 16 12 11 12 12 10 10 8 11 18 14 15 14 16 18 26 34 51 44 41 39 35 36
5 5 12 9 5 6 6 18 8 9 13 4 14 4 6 8 8 9 9 13 21 25 25 24 19 18 13 14 15 13 11 12 13 12 14 18 15 15 14 16 16 17 25 34 36 39 37 33 34
4 3 2 2 4 4 4 8 6 8 6 15 8 9 8 7 9 8 7 7 11 19 21 23 20 18 18 17 12 10 14 14 14 16 18 16 15 16 16 23 27 27 29 25 32 32 30 32 32
1 2 2 3 2 4 2 4 4 5 7 4 18 10 7 9 9 7 5 9 12 15 19 24 26 24 22 22 24 17 15 10 10 11 11 12 13 16 19 21 24 27 27 29 29 32 31 33 32
6 3 6 2 3 4 2 7 8 3 3 7 11 10 16 4 8 8 8 12 12 11 13 15 20 25 21 15 21 22 21 15 13 12 14 16 19 20 19 22 25 27 29 30 33 31 31 31 29
Wind_Direction
318 324 318 281 48 91 256 253 232 285 288 295 49 76 73 61 69 115 150 135 140 151 159 162 157 150 150 150 151 151 147 145 144 139 138 136 137 135 134 132 130 125 121 117 117 110 102 97 89
316 322 311 268 128 146 259 246 5 2 359 4 27 84 73 70 78 75 103 136 145 153 161 164 160 157 155 154 157 157 153 152 149 145 143 140 141 139 139 135 132 129 126 120 118 111 105 99 90
319 298 348 169 202 229 243 326 350 3 20 7 10 30 92 118 47 88 110 142 147 156 165 166 164 162 161 159 162 162 160 158 155 152 149 146 145 145 144 140 136 131 127 123 119 105 102 102 96
312 323 306 123 263 268 278 322 334 345 15 12 356 68 76 104 105 118 111 160 157 163 168 168 167 167 165 165 165 168 166 164 161 159 156 153 151 149 151 148 143 139 136 133 132 126 122 101 82
300 285 271 229 249 265 279 269 351 353 347 354 13 334 95 83 91 121 125 161 167 167 172 171 172 171 169 169 168 170 171 170 167 164 163 158 158 158 159 160 154 152 151 148 152 159 175 216 312
300 136 257 267 271 268 268 289 325 344 327 330 353 14 47 72 54 88 97 175 189 167 174 172 177 176 174 172 172 174 174 174 173 171 169 165 166 167 170 174 172 169 169 173 183 200 224 249 258
207 275 253 255 261 275 275 251 216 242 259 283 307 9 337 39 29 3 123 48 156 175 167 170 179 182 179 176 176 177 178 179 178 179 177 174 175 177 183 190 193 192 190 202 219 235 246 252 256
231 254 259 259 266 271 279 296 203 175 215 287 318 211 139 285 32 9 119 81 134 171 167 167 177 185 183 180 180 182 182 184 184 184 184 185 186 188 191 202 209 216 214 223 237 246 252 259 258
257 243 249 244 253 265 280 290 273 197 124 85 302 219 151 133 84 19 12 356 144 163 168 168 174 185 187 185 182 185 187 187 189 189 191 193 196 197 203 216 221 229 237 245 254 258 263 265 266
208 239 245 257 269 277 285 292 300 142 175 243 291 296 84 78 61 55 31 2 101 154 171 170 176 182 186 189 187 187 188 190 194 195 196 199 201 203 215 225 235 238 245 252 257 263 266 266 267
240 245 251 255 250 258 264 278 292 256 207 203 212 211 240 105 77 60 34 14 348 169 169 179 175 181 182 185 197 190 192 192 197 201 201 201 200 205 207 221 226 238 248 259 257 261 263 266 270
230 236 241 252 254 260 263 281 284 290 212 218 209 211 224 109 115 95 53 55 23 93 168 182 183 175 179 179 199 202 197 195 198 201 204 201 202 204 209 222 234 241 250 258 260 256 262 262 266
255 255 247 247 244 253 263 265 275 281 289 327 196 175 231 165 135 131 117 32 168 87 105 172 189 180 176 181 191 201 207 206 206 205 207 207 203 204 205 218 228 239 240 248 252 252 262 266 264
262 270 266 267 259 253 247 258 276 266 296 306 232 204 201 186 162 171 172 183 134 178 100 135 189 189 176 175 190 199 203 207 203 204 209 209 209 206 208 215 225 235 240 246 253 256 262 269 265
306 300 297 284 277 278 305 282 260 281 292 277 282 201 207 196 192 180 183 184 158 171 179 146 178 189 184 184 175 176 199 203 201 201 202 209 212 211 214 215 223 227 236 245 256 260 262 264 269
311 308 296 286 293 270 255 266 250 273 243 254 270 263 198 211 206 208 193 181 173 191 196 164 170 179 189 195 203 205 181 188 210 204 203 208 213 215 214 221 226 231 241 243 253 258 260 261 265
275 260 269 279 247 254 226 254 252 234 247 241 248 260 253 258 205 214 203 186 170 184 184 181 201 196 195 200 211 213 205 191 176 183 206 211 214 215 216 222 228 232 238 243 249 252 258 264 273
264 267 255 251 266 260 248 245 251 226 222 232 233 240 251 243 243 108 171 159 146 151 175 178 224 234 222 206 202 210 219 214 202 182 196 199 217 216 220 227 227 232 237 243 247 245 249 259 270
246 263 274 280 289 319 297 289 303 215 203 252 265 266 211 190 160 141 154 145 138 145 157 166 211 258 250 224 208 196 208 223 217 211 200 214 217 221 225 231 232 234 240 239 247 245 253 261 266
262 272 287 293 315 313 304 293 280 272 231 217 261 265 212 191 171 136 142 145 143 145 149 171 188 257 262 233 224 208 201 227 241 229 220 223 214 227 232 231 234 232 239 238 236 236 245 259 266
268 257 288 281 282 281 287 288 285 258 206 291 282 242 231 194 183 162 155 159 157 156 165 178 199 229 247 241 223 219 189 205 225 229 223 225 214 222 233 235 236 239 245 248 240 239 235 236 258
287 287 295 288 288 259 273 276 279 288 238 232 243 253 237 208 187 180 169 148 154 161 161 167 192 229 248 243 229 227 219 201 209 214 235 230 209 219 245 241 241 246 249 246 243 243 243 221 221
285 249 260 274 277 347 302 294 279 258 275 270 272 244 237 202 177 151 126 141 144 148 148 168 179 201 244 241 240 240 221 216 210 219 257 245 233 239 250 265 256 248 248 243 245 247 232 224 220
329 339 270 264 212 275 261 256 279 278 265 307 291 246 218 153 135 135 136 138 140 139 157 167 172 220 234 244 244 245 249 219 204 207 221 271 250 232 234 248 240 247 256 248 256 250 241 232 231
352 350 330 280 258 246 254 255 240 251 303 301 296 266 177 138 131 131 133 140 163 175 177 191 217 216 221 242 249 251 251 253 256 247 222 240 271 272 240 238 235 233 260 267 260 251 244 232 231
290 155 184 276 247 285 318 250 252 211 240 290 297 122 124 125 135 140 158 171 176 179 193 200 208 204 210 223 243 253 254 260 258 265 277 268 247 261 273 268 267 241 237 256 244 244 247 242 237
216 167 206 239 260 282 278 288 302 242 262 289 338 72 105 128 130 135 126 142 176 186 196 195 189 197 207 221 229 227 243 254 257 258 252 260 272 271 264 271 273 272 265 264 255 247 250 243 239
213 32 339 117 228 236 238 282 274 23 341 286 291 274 127 117 115 126 132 143 157 160 165 177 188 207 229 243 239 239 244 251 255 259 257 258 269 272 275 271 272 271 278 277 256 248 246 237 237
257 27 350 301 189 251 264 250 109 31 17 304 276 329 186 154 148 142 162 202 214 205 196 193 199 201 215 227 234 237 243 257 264 263 263 279 284 282 277 276 280 281 279 278 271 256 246 247 247
47 152 147 153 335 294 103 253 340 341 3 330 356 326 341 152 158 177 201 187 181 192 182 191 210 219 221 218 231 230 232 235 257 268 276 279 284 286 284 288 282 282 281 274 273 262 249 248 245